Location: Foulognes
(49.1413°N, 0.8183°W)
Time: 23:10:51
(UTC+00:00)

Cosmos 1076 Rocket - Pass Details

Date: 21 October 2019
Orbit: 589 x 613 km, 82.5° (Epoch: 19 November)

Event Time Altitude Azimuth Distance (km) Brightness Sun altitude
Rises 18:53:12 0° 348° (NNW) 2,891 7.2 -18.8°
Reaches altitude 10° 18:55:26 10° 347° (NNW) 1,979 6.4 -19.2°
Maximum altitude 18:59:49 75° 263° (W) 635 3.6 -19.9°
Drops below altitude 10° 19:04:07 10° 178° (S) 1,950 6.0 -20.6°
Sets 19:06:19 0° 177° (S) 2,844 6.9 -20.9°
